ITOS 1 (TIROS M)

Satellite information

Favourite Embed

Satellite Type and Status

PAYLOADIN ORBIT

Key statistics

Satellite ITOS 1 (TIROS M) at a glance.

Uptime

20318

Days in orbit

Revolutions

≈ 12.5

Per day

Orbit

SSO

Sun Synchronous Orbit

Inclination

101.4

Latest

Satellite identification and parameters

Extended collection of information and parameters for ITOS 1 (TIROS M).

Object identification

Identified? True

Debris? False

Object name: ITOS 1 (TIROS M)

International designator: 1970-008A

Object number (NORAD): 4320

Object ID (CCSDS): 4320

Country: UNITED STATES OF AMERICA (US)

Current information (Y/N): Y

RCS size: LARGE

Orbital parameters

Period: 115.005 minutes

Inclination: 101.4147 deg

SMA: 7833.8 km

Apoapsis: 1478.003 km

Periapsis: 1433.327 km

RAAN: 292.0454 deg

Eccentricy: 0.00285145

Argument of periapsis: 142.8129 deg

Mean anomaly: 342.3809 deg

Mean motion: 12.52114458 rev/day

Mean motion (dot): -0.00000013 rev/day2

B* drag term: 0.00018644132 1/REarth

Two-line elements (TLE)

Creation date: Sept. 8, 2025, 6:18 p.m.

Reference frame: TEME

Reference center: EARTH

Epoch: Sept. 8, 2025, 2:32 p.m. UTC

TLE line 0: 0 ITOS 1 (TIROS M)

TLE line 1: 1 04320U 70008A 25251.60617257 -.00000013 00000-0 18644-3 0 9994

TLE line 2: 2 04320 101.4147 292.0454 0028515 142.8129 342.3809 12.52114458738610

Live tracking on map

Real-time ground track for satellite ITOS 1 (TIROS M).

In-orbit conjunctions

A list of the most updated potential collisions computed for object ITOS 1 (TIROS M).

Target Orbit TCA Probability of collision Miss distance Type
CZ-4 DEB SSO 2025-08-06 07:36:37 0.000514751 430.0 (m) DEBRIS
DELTA 1 DEB SSO 2024-06-27 05:31:27 0.0001284726 274.0 (m) DEBRIS

Associated space launch

Sun-synchronous meteorological satellite

ITOS 1 (TIROS M) was lifted into orbit during the mission ‘Thor Delta N6 | ITOS 1’, on board a Thor Delta N6 space rocket.

The launch took place on Jan. 23, 1970, 11:31 a.m. from Space Launch Complex 2W.

For more information about the launch, click the button.

Launch to space Thor Delta N6 | ITOS 1
Thor Delta N6 | ITOS 1

Agency: N/A

Status: Launch Successful

Launch date: Jan. 23, 1970, 11:31 a.m. UTC

Rocket: Thor Delta N6

Launch pad: Space Launch Complex 2W

Location: Vandenberg SFB, CA, USA

...

Latest news about this satellite

There are no fresh news available about this satellite. Check back as we update our databases every day.


Newsletter sign-up

Weekly statistics, charts and insights to help you stay on top of the space industry.